FREGAT DEB (TANK), 41108

Orbit data source: Space-Track

FREGAT DEB (TANK), 41108 is space debris in LEO originally from a launch on Fri, 11 Dec 2015 UTC launched from the Tyuratam Missile And Space Complex (TTMTR). Debris objects in space refer to the collection of defunct objects orbiting the Earth. Examples of debris include non-operational satellites, rocket bodies, and fragments generated from explosions, collisions, or faulty payload assembly.

Loading next visibility...
Identifier
41108, 2015-074D
Orbit
LEO
Last TLE update
13 hours ago
Origin
Manufacturer
Lavochkin
Mission
Spacecraft
Bus & Motor
FREGAT SBB, Unknown motor
Mass
360 kg wet, 360 kg dry
Launch date (UTC)
2015-12-11 (10 years ago)
Launch vehicle
Unknown
Launch site
Tyuratam Missile And Space Complex (TTMTR)
Object type
Payload
Rocket body
Debris
Shape & HBR
Torus, 3.9 m
Radar Cross Section
6.703 m², Large (>1 m²)

Expand to show TLE details & history

TLE from 13 hours ago
0 FREGAT DEB (TANK)
1 41108U 15074D   25191.47876814  .00047691  57142-5  72260-3 0  9995
2 41108  50.3098 277.3124 1284882 337.1090  17.7089 13.06659610404347
Epoch: 2025-07-10T11:29Z
TLE epoch observation values (Epoch: 2025-07-10T11:29:25.567Z)
Latitude
0.00002°
Longitude
176.31142°
Altitude
318.909 km
Speed
8.169 km/s
True Right ascension
18h 29m 14s
True Declination
0° 00' 00"
Sunlit
Object was in full shadow at epoch
Visualization orbit readout
Latitude
-11.06187°
Longitude
165.14148°
Altitude
266.273 km
Speed
8.227 km/s
Apparent Right ascension
20h 28m 59s
Apparent Declination
-36° 14' 09"
Sunlit
Object is in full shadow
Visualization observer readout
Local Sidereal Time
12:33:17
Azimuth
106.047° ESE
Elevation
-42.726°
Doppler factor
1
Orbital elements
Apogee altitude
2,215.202 km
Perigee altitude
258.349 km
Semi-major axis
7,614.913 km
Eccentricity
0.12849
Inclination
50.3098°
RAAN
277.3124°
Arg. of periapsis
337.109°
True anomaly
Unknown
Mean anomaly
17.7089°
Eccentric anomaly
Unknown
Mean motion
3.26622 °/min
Orbital period
110.22 mins
BSTAR
0.0007226
Loading maneuver chart data...
Loading SW <> Apogee altitude chart data...
Loading historical data...
Loading historical data...
Loading historical data...
Loading historical data...
Loading historical data...
Loading historical data...
Loading historical data...

FREGAT DEB (TANK) Visibility forecast

Observer location: undefined°, undefined°

Span
Click to sort rows by Start time (UTC) header in descending order
Start Az.
Max El. time (UTC)
Max El. Az.
Max El.
End time (UTC)
End Az.
9 mins2025-07-11 07:50:05.231Z189.218° SSW2025-07-11 07:53:05.231Z131.143° SE31.316°2025-07-11 07:59:05.231Z64.479° ENE
12 mins2025-07-11 09:44:05.231Z263.362° W2025-07-11 09:48:05.231Z330.658° NNW39.88°2025-07-11 09:56:05.231Z54.258° ENE
15 mins2025-07-11 11:40:05.231Z299.986° NW2025-07-11 11:45:05.231Z356.342° N33.958°2025-07-11 11:55:05.231Z70.029° E
19 mins2025-07-11 13:36:05.231Z309.22° NW2025-07-11 13:43:05.231Z22.463° NNE41.191°2025-07-11 13:55:05.231Z102.746° ESE
22 mins2025-07-11 15:31:05.231Z300.522° NW2025-07-11 15:40:05.231Z225.682° WSW43.321°2025-07-11 15:53:05.231Z142.55° SSE
17 mins2025-07-11 17:28:05.231Z281.973° WNW2025-07-11 17:36:05.231Z236.949° WSW24.084°2025-07-11 17:45:05.231Z191.496° SSW
|